Location: Haulchin
(50.3172°N, 3.4360°E)
Time: 05:59:09
(UTC+00:00)

Cosmos 2333 Rocket - Pass Details

Date: 15 August 2024
Orbit: 839 x 863 km, 70.8° (Epoch: 16 September)

Event Time Altitude Azimuth Distance (km) Brightness Sun altitude
Exits shadow 22:26:49 22° 90° (E) 1,817 3.7 -23.4°
Drops below altitude 10° 22:30:23 10° 53° (NE) 2,510 4.8 -23.6°
Sets 22:33:22 0° 39° (NE) 3,453 5.8 -23.8°
